Regional Weather Roundup
Issued by NWS

Home | Current Version | Previous Version | Text Only | Print | Product List | Glossary On
Versions: 1 2 3 4 5 6 7 8 9 10 11 12 13 14 15 16 17 18 19 20 21 22 23 24 25 26 27 28 29 30 31 32 33 34 35 36 37 38 39 40 41 42 43 44 45 46 47 48 49 50
000
ASUS42 KFFC 010803
RWRGA
WEATHER ROUNDUP FOR GEORGIA
NATIONAL WEATHER SERVICE PEACHTREE CITY GA
400 AM EDT MON SEP 01 2014

NOTE: "FAIR" INDICATES FEW OR NO CLOUDS BELOW 12,000 FEET WITH NO
SIGNIFICANT WEATHER AND/OR OBSTRUCTIONS TO VISIBILITY.

* = USE WITH CAUTION. THE STATIONS MARKED WITH AN ASTERISK MAY NOT
REPORT WEATHER SUCH AS PRECIPITATION, FOG, OR THUNDER AND ARE NOT
QUALITY CONTROLLED BY NWS.

THE REMARK "TC" DENOTES TEMPERATURE READING IN DEGREES CELSIUS.

GAZ001>058-010900-
NORTH GEORGIA

CITY           SKY/WX    TMP DP  RH WIND       PRES   REMARKS
ATLANTA        MOCLDY    75  70  84 SW3       30.10F
ATHENS         CLEAR     73  70  90 CALM      30.11S
CHAMBLEE       CLOUDY    73  69  87 CALM      30.11S
PEACHTREE CITY MOCLDY    72  70  93 CALM      30.10F
ROME           CLOUDY    70  69  97 E3        30.09S
WEST ATLANTA   MOCLDY    73  70  90 CALM      30.10S
GAINESVILLE    CLOUDY    72  70  93 CALM      30.14F
CARTERSVILLE   MOCLDY    73  71  93 CALM      30.10S


CITY           SKY/WX    TMP DP  RH WIND       PRES   REMARKS
DALTON*        CLOUDY    72  72 100 CALM      30.10S
MARIETTA       MOCLDY    73  71  95 SE2       30.11S
$$

GAZ059>098-102>109-010900-
CENTRAL GEORGIA

CITY           SKY/WX    TMP DP  RH WIND       PRES   REMARKS
AUGUSTA-BUSH   PTCLDY    71  70  96 SE3       30.08F FOG
AUGUSTA-DANIEL PTCLDY    75  73  93 S3        30.09F
COLUMBUS       PTCLDY    76  72  87 CALM      30.07F
MACON          CLEAR     72  72 100 CALM      30.08F
ROBINS AFB     CLEAR     73  73  98 E2        30.08F


CITY           SKY/WX    TMP DP  RH WIND       PRES   REMARKS
LAGRANGE*      PTCLDY    75  73  95 CALM      30.09S
SYLVANIA*      CLEAR     66  66 100 CALM      30.09F FOG
MILLEDGEVILLE* CLEAR     73  73 100 CALM      30.09S
$$

GAZ099>101-110>166-010900-
SOUTH GEORGIA

CITY           SKY/WX    TMP DP  RH WIND       PRES   REMARKS
SAVANNAH       PTCLDY    75  71  87 SW5       30.08F
VALDOSTA       CLOUDY    74  73  97 CALM      30.07F
ALMA           PTCLDY    73  72  96 CALM      30.06F
ST SIMONS      CLEAR     78  73  84 S3        30.06F
FT STEWART     PTCLDY    72  70  93 CALM      30.06F
ALBANY         CLEAR     75  73  93 CALM      30.09F
HUNTER AFB     PTCLDY    74  73  97 W3        30.06F
MOODY AFB      CLOUDY    75  73  93 SE3       30.07F
BRUNSWICK      CLEAR     75  72  88 CALM      30.08S


CITY           SKY/WX    TMP DP  RH WIND       PRES   REMARKS
BAINBRIDGE*    PTCLDY    79  77  94 CALM      30.07F
MOULTRIE*      CLEAR     77  73  88 CALM      30.08F
VIDALIA*         N/A     72  72 100 CALM      30.08F
WAYCROSS*      PTCLDY    77  77  99 CALM      30.07S
DOUGLAS*       PTCLDY    75  73  94 SW5       30.09S
$$


USA.gov is the U.S. government's official web portal to all federal, state and local government web resources and services.